NORTHEAST SUFFOLK  -  Dense Fog Advisory Dense Fog Advisory        NORTHERN NASSAU  -  Dense Fog Advisory Dense Fog Advisory        NORTHERN QUEENS  -  Dense Fog Advisory Dense Fog Advisory     Dense Fog Advisory Dense Fog Advisory        NORTHWEST SUFFOLK  -  Dense Fog Advisory Dense Fog Advisory        SOUTHEAST SUFFOLK  -  Dense Fog Advisory Dense Fog Advisory        SOUTHERN NASSAU  -  Dense Fog Advisory Dense Fog Advisory        SOUTHERN QUEENS  -  Dense Fog Advisory Dense Fog Advisory     Dense Fog Advisory Dense Fog Advisory        SOUTHWEST SUFFOLK  -  Dense Fog Advisory Dense Fog Advisory      

Active alerts

Northern Queens
  Details for Northern Queens Dense Fog Advisory  +1 additional alert
Southern Queens
  Details for Southern Queens Dense Fog Advisory  +1 additional alert
Northern Nassau
  Details for Northern Nassau Dense Fog Advisory
Southern Nassau
  Details for Southern Nassau Dense Fog Advisory
Northwest Suffolk
  Details for Northwest Suffolk Dense Fog Advisory
Southwest Suffolk
  Details for Southwest Suffolk Dense Fog Advisory
Northeast Suffolk
  Details for Northeast Suffolk Dense Fog Advisory
Southeast Suffolk
  Details for Southeast Suffolk Dense Fog Advisory


WXM80 ListenWXM80 Stop

You find our weather info also at:

UK Metoffice

WeatherCloud

Weather Underground

Northeastern Weather Network

AWEKAS

Citizen Weather Observer Program (CWOP)

HAMweather, WeatherForYou, PWS Weather


Weather Underground History page Text

Daily Summary for January 12, 2018 Units:  Both    English   Metric
« Previous Day
Next Day »
Daily Weekly Monthly Yearly Custom
  High: Low: Average:
Temperature: TemperatureF °F /  -17.8 °C 37.3 °F /  2.9 °C 53.5 °F /  11.9 °C
Dew Point: DewpointF °F /  -17.8 °C 36.1 °F /  2.3 °C 52.8 °F /  11.6 °C
Humidity: Humidity % 94 % 97 %
Wind Speed: WindSpeedMPH mph /  0 km/h - 5.7 mph /  9.2 km/h
Wind Gust: WindSpeedGustMPH mph /  0 km/h - -
Wind:- - SSW
Pressure: PressureIn in /  0 hPa 29.31 in /  992.4 hPa -
Precipitation: 0.04 in /  1.02 mm    
Historical Graphs
 
 
Tabular Data for January 12, 2018
Time Temperature Dew Point Pressure Wind Wind Speed Wind Gust Humidity Rainfall Rate (Hourly)
TemperatureF °F /  -17.8 °C DewpointF °F /  -17.8 °C PressureIn in /  0 hPa Calm     Humidity % HourlyPrecipIn in /  0 mm
00:01 37.8 °F /  3.2 °C 36.2 °F /  2.3 °C 29.97 in /  1014.8 hPa Calm     94 % 0.00 in /  0 mm
00:08 37.7 °F /  3.2 °C 36.4 °F /  2.4 °C 29.97 in /  1014.8 hPa Calm     95 % 0.00 in /  0 mm
00:14 37.6 °F /  3.1 °C 36.3 °F /  2.4 °C 29.96 in /  1014.4 hPa Calm     95 % 0.00 in /  0 mm
00:24 37.5 °F /  3.1 °C 36.2 °F /  2.3 °C 29.95 in /  1014.1 hPa Calm   1.0 mph /  1.6 km/h 95 % 0.00 in /  0 mm
00:33 37.4 °F /  3 °C 36.1 °F /  2.3 °C 29.95 in /  1014.1 hPa Calm     95 % 0.00 in /  0 mm
00:38 37.4 °F /  3 °C 36.1 °F /  2.3 °C 29.94 in /  1013.8 hPa Calm     95 % 0.00 in /  0 mm
00:45 37.4 °F /  3 °C 36.1 °F /  2.3 °C 29.94 in /  1013.8 hPa WNW 0.6 mph /  1 km/h 2.0 mph /  3.2 km/h 95 % 0.00 in /  0 mm
00:54 37.4 °F /  3 °C 36.1 °F /  2.3 °C 29.94 in /  1013.8 hPa Calm     95 % 0.00 in /  0 mm
01:00 37.5 °F /  3.1 °C 36.2 °F /  2.3 °C 29.93 in /  1013.4 hPa Calm     95 % 0.00 in /  0 mm
01:06 37.6 °F /  3.1 °C 36.3 °F /  2.4 °C 29.93 in /  1013.4 hPa Calm     95 % 0.00 in /  0 mm
01:15 37.9 °F /  3.3 °C 36.9 °F /  2.7 °C 29.93 in /  1013.4 hPa Calm     96 % 0.00 in /  0 mm
01:20 37.9 °F /  3.3 °C 36.9 °F /  2.7 °C 29.93 in /  1013.4 hPa Calm     96 % 0.00 in /  0 mm
01:27 38.0 °F /  3.3 °C 37.0 °F /  2.8 °C 29.93 in /  1013.4 hPa Calm     96 % 0.00 in /  0 mm
01:32 38.2 °F /  3.4 °C 37.2 °F /  2.9 °C 29.93 in /  1013.4 hPa WNW 0.1 mph /  0.2 km/h 1.0 mph /  1.6 km/h 96 % 0.00 in /  0 mm
01:37 38.3 °F /  3.5 °C 37.3 °F /  2.9 °C 29.93 in /  1013.4 hPa Calm     96 % 0.00 in /  0 mm
01:42 38.3 °F /  3.5 °C 37.3 °F /  2.9 °C 29.92 in /  1013.1 hPa Calm     96 % 0.00 in /  0 mm
01:48 38.3 °F /  3.5 °C 37.3 °F /  2.9 °C 29.92 in /  1013.1 hPa WNW 0.2 mph /  0.3 km/h 3.5 mph /  5.6 km/h 96 % 0.00 in /  0 mm
01:54 38.3 °F /  3.5 °C 37.3 °F /  2.9 °C 29.92 in /  1013.1 hPa WNW 0.4 mph /  0.6 km/h 2.0 mph /  3.2 km/h 96 % 0.00 in /  0 mm
01:59 38.2 °F /  3.4 °C 37.2 °F /  2.9 °C 29.92 in /  1013.1 hPa Calm   1.2 mph /  1.9 km/h 96 % 0.00 in /  0 mm
02:05 38.1 °F /  3.4 °C 37.1 °F /  2.8 °C 29.92 in /  1013.1 hPa Calm     96 % 0.00 in /  0 mm
02:10 37.9 °F /  3.3 °C 36.9 °F /  2.7 °C 29.92 in /  1013.1 hPa Calm   1.2 mph /  1.9 km/h 96 % 0.00 in /  0 mm
02:18 37.7 °F /  3.2 °C 36.7 °F /  2.6 °C 29.91 in /  1012.8 hPa Calm   2.3 mph /  3.7 km/h 96 % 0.00 in /  0 mm
02:24 37.6 °F /  3.1 °C 36.6 °F /  2.6 °C 29.91 in /  1012.8 hPa Calm     96 % 0.00 in /  0 mm
02:29 37.5 °F /  3.1 °C 36.5 °F /  2.5 °C 29.91 in /  1012.8 hPa Calm     96 % 0.00 in /  0 mm
02:34 37.5 °F /  3.1 °C 36.5 °F /  2.5 °C 29.90 in /  1012.4 hPa Calm     96 % 0.00 in /  0 mm
02:42 37.4 °F /  3 °C 36.4 °F /  2.4 °C 29.90 in /  1012.4 hPa Calm     96 % 0.00 in /  0 mm
02:47 37.4 °F /  3 °C 36.4 °F /  2.4 °C 29.90 in /  1012.4 hPa Calm     96 % 0.00 in /  0 mm
03:01 37.3 °F /  2.9 °C 36.3 °F /  2.4 °C 29.89 in /  1012.1 hPa Calm     96 % 0.00 in /  0 mm
03:09 37.4 °F /  3 °C 36.4 °F /  2.4 °C 29.89 in /  1012.1 hPa Calm     96 % 0.00 in /  0 mm
03:15 37.4 °F /  3 °C 36.4 °F /  2.4 °C 29.88 in /  1011.7 hPa WNW 0.6 mph /  1 km/h 1.0 mph /  1.6 km/h 96 % 0.00 in /  0 mm
03:33 37.6 °F /  3.1 °C 36.6 °F /  2.6 °C 29.87 in /  1011.4 hPa Calm     96 % 0.00 in /  0 mm
03:42 37.7 °F /  3.2 °C 36.7 °F /  2.6 °C 29.86 in /  1011.1 hPa Calm     96 % 0.00 in /  0 mm
03:52 37.7 °F /  3.2 °C 36.7 °F /  2.6 °C 29.86 in /  1011.1 hPa Calm     96 % 0.00 in /  0 mm
04:01 37.9 °F /  3.3 °C 36.9 °F /  2.7 °C 29.85 in /  1010.7 hPa WNW 0.1 mph /  0.2 km/h 1.0 mph /  1.6 km/h 96 % 0.00 in /  0 mm
04:18 40.8 °F /  4.9 °C 40.0 °F /  4.4 °C 29.84 in /  1010.4 hPa SW 4.9 mph /  7.9 km/h 11.5 mph /  18.5 km/h 97 % 0.00 in /  0 mm
04:31 47.5 °F /  8.6 °C 47.0 °F /  8.3 °C 29.83 in /  1010 hPa South 3.0 mph /  4.8 km/h 8.0 mph /  12.9 km/h 98 % 0.00 in /  0 mm
04:42 50.6 °F /  10.3 °C 50.1 °F /  10.1 °C 29.82 in /  1009.7 hPa South 1.9 mph /  3.1 km/h 3.5 mph /  5.6 km/h 98 % 0.00 in /  0 mm
04:51 51.2 °F /  10.7 °C 50.7 °F /  10.4 °C 29.82 in /  1009.7 hPa South 6.0 mph /  9.7 km/h 8.0 mph /  12.9 km/h 98 % 0.00 in /  0 mm
04:58 51.8 °F /  11 °C 51.3 °F /  10.7 °C 29.82 in /  1009.7 hPa SSW 2.9 mph /  4.7 km/h 15.0 mph /  24.1 km/h 98 % 0.00 in /  0 mm
05:05 52.1 °F /  11.2 °C 51.6 °F /  10.9 °C 29.82 in /  1009.7 hPa SW 3.1 mph /  5 km/h 6.0 mph /  9.7 km/h 98 % 0.00 in /  0 mm
05:22 53.3 °F /  11.8 °C 52.8 °F /  11.6 °C 29.82 in /  1009.7 hPa South 7.0 mph /  11.3 km/h 12.7 mph /  20.4 km/h 98 % 0.00 in /  0 mm
05:42 54.3 °F /  12.4 °C 53.7 °F /  12.1 °C 29.80 in /  1009 hPa SSW 4.7 mph /  7.6 km/h 10.4 mph /  16.7 km/h 98 % 0.00 in /  0 mm
05:50 54.5 °F /  12.5 °C 53.9 °F /  12.2 °C 29.80 in /  1009 hPa South 6.1 mph /  9.8 km/h 9.2 mph /  14.8 km/h 98 % 0.00 in /  0 mm
05:56 54.6 °F /  12.6 °C 54.0 °F /  12.2 °C 29.79 in /  1008.7 hPa South 6.3 mph /  10.1 km/h 11.5 mph /  18.5 km/h 98 % 0.00 in /  0 mm
06:08 55.0 °F /  12.8 °C 54.4 °F /  12.4 °C 29.79 in /  1008.7 hPa South 6.8 mph /  10.9 km/h 10.4 mph /  16.7 km/h 98 % 0.00 in /  0 mm
06:13 55.4 °F /  13 °C 54.8 °F /  12.7 °C 29.80 in /  1009 hPa South 7.2 mph /  11.6 km/h 11.5 mph /  18.5 km/h 98 % 0.00 in /  0 mm
06:26 56.2 °F /  13.4 °C 55.6 °F /  13.1 °C 29.79 in /  1008.7 hPa SW 4.8 mph /  7.7 km/h 16.1 mph /  25.9 km/h 98 % 0.00 in /  0 mm
06:31 56.4 °F /  13.6 °C 55.8 °F /  13.2 °C 29.79 in /  1008.7 hPa South 6.6 mph /  10.6 km/h 12.7 mph /  20.4 km/h 98 % 0.00 in /  0 mm
06:36 56.6 °F /  13.7 °C 56.0 °F /  13.3 °C 29.79 in /  1008.7 hPa South 7.1 mph /  11.4 km/h 11.5 mph /  18.5 km/h 98 % 0.00 in /  0 mm
06:41 56.6 °F /  13.7 °C 56.0 °F /  13.3 °C 29.79 in /  1008.7 hPa South 7.1 mph /  11.4 km/h 12.7 mph /  20.4 km/h 98 % 0.00 in /  0 mm
06:48 56.7 °F /  13.7 °C 56.1 °F /  13.4 °C 29.78 in /  1008.4 hPa SSW 6.4 mph /  10.3 km/h 13.8 mph /  22.2 km/h 98 % 0.00 in /  0 mm
06:55 56.6 °F /  13.7 °C 56.0 °F /  13.3 °C 29.78 in /  1008.4 hPa South 5.6 mph /  9 km/h 9.2 mph /  14.8 km/h 98 % 0.00 in /  0 mm
07:01 56.9 °F /  13.8 °C 56.3 °F /  13.5 °C 29.78 in /  1008.4 hPa South 11.2 mph /  18 km/h 18.4 mph /  29.6 km/h 98 % 0.00 in /  0 mm
07:12 57.1 °F /  13.9 °C 56.5 °F /  13.6 °C 29.77 in /  1008 hPa SE 8.4 mph /  13.5 km/h 15.0 mph /  24.1 km/h 98 % 0.00 in /  0 mm
07:30 57.1 °F /  13.9 °C 56.5 °F /  13.6 °C 29.76 in /  1007.7 hPa South 6.6 mph /  10.6 km/h 15.0 mph /  24.1 km/h 98 % 0.00 in /  0 mm
07:37 57.2 °F /  14 °C 56.6 °F /  13.7 °C 29.76 in /  1007.7 hPa South 9.5 mph /  15.3 km/h 12.7 mph /  20.4 km/h 98 % 0.00 in /  0 mm
07:43 57.2 °F /  14 °C 56.6 °F /  13.7 °C 29.76 in /  1007.7 hPa SSW 6.1 mph /  9.8 km/h 11.5 mph /  18.5 km/h 98 % 0.00 in /  0 mm
07:54 57.4 °F /  14.1 °C 56.8 °F /  13.8 °C 29.75 in /  1007.3 hPa SSW 6.6 mph /  10.6 km/h 13.8 mph /  22.2 km/h 98 % 0.00 in /  0 mm
08:07 57.7 °F /  14.3 °C 57.1 °F /  13.9 °C 29.75 in /  1007.3 hPa SSW 7.2 mph /  11.6 km/h 9.2 mph /  14.8 km/h 98 % 0.00 in /  0 mm
08:19 57.7 °F /  14.3 °C 57.1 °F /  13.9 °C 29.74 in /  1007 hPa South 6.6 mph /  10.6 km/h 19.6 mph /  31.5 km/h 98 % 0.00 in /  0 mm
08:27 57.8 °F /  14.3 °C 57.2 °F /  14 °C 29.74 in /  1007 hPa SSE 5.2 mph /  8.4 km/h 9.2 mph /  14.8 km/h 98 % 0.00 in /  0 mm
08:35 57.8 °F /  14.3 °C 57.0 °F /  13.9 °C 29.74 in /  1007 hPa South 9.8 mph /  15.8 km/h 17.3 mph /  27.8 km/h 97 % 0.00 in /  0 mm
08:40 58.1 °F /  14.5 °C 57.3 °F /  14.1 °C 29.74 in /  1007 hPa South 9.6 mph /  15.4 km/h 13.8 mph /  22.2 km/h 97 % 0.00 in /  0 mm
08:50 58.3 °F /  14.6 °C 57.5 °F /  14.2 °C 29.74 in /  1007 hPa SSW 9.2 mph /  14.8 km/h 16.1 mph /  25.9 km/h 97 % 0.00 in /  0 mm
09:03 58.7 °F /  14.8 °C 57.9 °F /  14.4 °C 29.72 in /  1006.3 hPa South 10.1 mph /  16.3 km/h 24.2 mph /  38.9 km/h 97 % 0.00 in /  0 mm
09:13 58.8 °F /  14.9 °C 58.0 °F /  14.4 °C 29.72 in /  1006.3 hPa South 9.6 mph /  15.4 km/h 19.6 mph /  31.5 km/h 97 % 0.00 in /  0 mm
09:19 58.8 °F /  14.9 °C 58.0 °F /  14.4 °C 29.72 in /  1006.3 hPa South 7.5 mph /  12.1 km/h 19.6 mph /  31.5 km/h 97 % 0.00 in /  0 mm
09:25 58.7 °F /  14.8 °C 57.9 °F /  14.4 °C 29.71 in /  1006 hPa South 5.9 mph /  9.5 km/h 10.4 mph /  16.7 km/h 97 % 0.00 in /  0 mm
09:30 58.5 °F /  14.7 °C 57.7 °F /  14.3 °C 29.72 in /  1006.3 hPa South 8.8 mph /  14.2 km/h 18.0 mph /  29 km/h 97 % 0.00 in /  0 mm
09:43 58.6 °F /  14.8 °C 57.8 °F /  14.3 °C 29.71 in /  1006 hPa South 8.8 mph /  14.2 km/h 13.8 mph /  22.2 km/h 97 % 0.00 in /  0 mm
10:01 59.3 °F /  15.2 °C 58.4 °F /  14.7 °C 29.70 in /  1005.6 hPa SSW 13.3 mph /  21.4 km/h 20.0 mph /  32.2 km/h 97 % 0.00 in /  0 mm
10:35 59.6 °F /  15.3 °C 58.7 °F /  14.8 °C 29.68 in /  1005 hPa SW 10.5 mph /  16.9 km/h 19.6 mph /  31.5 km/h 97 % 0.00 in /  0 mm
10:43 59.6 °F /  15.3 °C 58.7 °F /  14.8 °C 29.68 in /  1005 hPa SSE 9.5 mph /  15.3 km/h 18.0 mph /  29 km/h 97 % 0.00 in /  0 mm
10:52 60.1 °F /  15.6 °C 59.2 °F /  15.1 °C 29.67 in /  1004.6 hPa South 10.3 mph /  16.6 km/h 18.4 mph /  29.6 km/h 97 % 0.00 in /  0 mm
10:58 60.0 °F /  15.6 °C 59.1 °F /  15.1 °C 29.66 in /  1004.3 hPa SSW 12.7 mph /  20.4 km/h 16.1 mph /  25.9 km/h 97 % 0.00 in /  0 mm
11:03 60.0 °F /  15.6 °C 59.1 °F /  15.1 °C 29.66 in /  1004.3 hPa SE 10.5 mph /  16.9 km/h 20.7 mph /  33.3 km/h 97 % 0.00 in /  0 mm
11:10 59.8 °F /  15.4 °C 58.7 °F /  14.8 °C 29.67 in /  1004.6 hPa SSE 5.9 mph /  9.5 km/h 10.4 mph /  16.7 km/h 96 % 0.00 in /  0 mm
11:15 59.8 °F /  15.4 °C 58.7 °F /  14.8 °C 29.66 in /  1004.3 hPa SSW 9.0 mph /  14.5 km/h 15.0 mph /  24.1 km/h 96 % 0.00 in /  0 mm
11:22 59.8 °F /  15.4 °C 58.9 °F /  14.9 °C 29.66 in /  1004.3 hPa South 8.6 mph /  13.8 km/h 11.5 mph /  18.5 km/h 97 % 0.00 in /  0 mm
11:29 60.0 °F /  15.6 °C 59.1 °F /  15.1 °C 29.65 in /  1003.9 hPa SSW 11.6 mph /  18.7 km/h 19.6 mph /  31.5 km/h 97 % 0.00 in /  0 mm
11:42 59.9 °F /  15.5 °C 59.0 °F /  15 °C 29.64 in /  1003.6 hPa SSW 9.7 mph /  15.6 km/h 20.0 mph /  32.2 km/h 97 % 0.00 in /  0 mm
11:47 59.8 °F /  15.4 °C 58.9 °F /  14.9 °C 29.65 in /  1003.9 hPa SSW 8.0 mph /  12.9 km/h 18.4 mph /  29.6 km/h 97 % 0.00 in /  0 mm
11:52 59.8 °F /  15.4 °C 58.9 °F /  14.9 °C 29.64 in /  1003.6 hPa South 8.3 mph /  13.4 km/h 26.5 mph /  42.6 km/h 97 % 0.00 in /  0 mm
12:17 60.2 °F /  15.7 °C 59.3 °F /  15.2 °C 29.61 in /  1002.6 hPa South 7.2 mph /  11.6 km/h 15.0 mph /  24.1 km/h 97 % 0.00 in /  0 mm
12:59 61.2 °F /  16.2 °C 60.3 °F /  15.7 °C 29.58 in /  1001.6 hPa SSW 13.5 mph /  21.7 km/h 17.3 mph /  27.8 km/h 97 % 0.00 in /  0 mm
13:07 61.3 °F /  16.3 °C 60.4 °F /  15.8 °C 29.59 in /  1001.9 hPa South 9.3 mph /  15 km/h 15.0 mph /  24.1 km/h 97 % 0.00 in /  0 mm
13:19 61.4 °F /  16.3 °C 60.5 °F /  15.8 °C 29.58 in /  1001.6 hPa South 10.9 mph /  17.5 km/h 17.3 mph /  27.8 km/h 97 % 0.00 in /  0 mm
13:24 61.4 °F /  16.3 °C 60.8 °F /  16 °C 29.57 in /  1001.2 hPa SSW 8.6 mph /  13.8 km/h 18.4 mph /  29.6 km/h 98 % 0.00 in /  0 mm
13:30 61.5 °F /  16.4 °C 60.9 °F /  16.1 °C 29.57 in /  1001.2 hPa South 11.1 mph /  17.9 km/h 19.0 mph /  30.6 km/h 98 % 0.00 in /  0 mm
13:35 61.7 °F /  16.5 °C 61.1 °F /  16.2 °C 29.57 in /  1001.2 hPa SSW 5.0 mph /  8 km/h 12.7 mph /  20.4 km/h 98 % 0.00 in /  0 mm
13:40 61.7 °F /  16.5 °C 61.1 °F /  16.2 °C 29.57 in /  1001.2 hPa SSW 8.4 mph /  13.5 km/h 18.4 mph /  29.6 km/h 98 % 0.00 in /  0 mm
13:49 61.6 °F /  16.4 °C 61.0 °F /  16.1 °C 29.57 in /  1001.2 hPa South 5.2 mph /  8.4 km/h 12.7 mph /  20.4 km/h 98 % 0.00 in /  0 mm
13:55 61.5 °F /  16.4 °C 60.9 °F /  16.1 °C 29.58 in /  1001.6 hPa SW 9.3 mph /  15 km/h 12.7 mph /  20.4 km/h 98 % 0.00 in /  0 mm
14:05 61.2 °F /  16.2 °C 60.3 °F /  15.7 °C 29.57 in /  1001.2 hPa South 5.5 mph /  8.9 km/h 11.5 mph /  18.5 km/h 97 % 0.00 in /  0 mm
14:13 60.8 °F /  16 °C 59.9 °F /  15.5 °C 29.57 in /  1001.2 hPa SSW 6.0 mph /  9.7 km/h 12.7 mph /  20.4 km/h 97 % 0.00 in /  0 mm
14:30 60.4 °F /  15.8 °C 59.5 °F /  15.3 °C 29.56 in /  1000.9 hPa SW 6.8 mph /  10.9 km/h 11.5 mph /  18.5 km/h 97 % 0.00 in /  0 mm
14:44 60.4 °F /  15.8 °C 59.8 °F /  15.4 °C 29.56 in /  1000.9 hPa SSE 7.6 mph /  12.2 km/h 12.0 mph /  19.3 km/h 98 % 0.00 in /  0 mm
14:52 60.3 °F /  15.7 °C 59.7 °F /  15.4 °C 29.56 in /  1000.9 hPa SSE 3.5 mph /  5.6 km/h 8.1 mph /  13 km/h 98 % 0.00 in /  0 mm
14:57 60.2 °F /  15.7 °C 59.3 °F /  15.2 °C 29.55 in /  1000.6 hPa South 5.3 mph /  8.5 km/h 8.0 mph /  12.9 km/h 97 % 0.00 in /  0 mm
15:04 60.0 °F /  15.6 °C 59.1 °F /  15.1 °C 29.55 in /  1000.6 hPa South 6.0 mph /  9.7 km/h 16.1 mph /  25.9 km/h 97 % 0.00 in /  0 mm
15:09 59.9 °F /  15.5 °C 59.0 °F /  15 °C 29.55 in /  1000.6 hPa South 5.0 mph /  8 km/h 6.9 mph /  11.1 km/h 97 % 0.00 in /  0 mm
15:21 59.9 °F /  15.5 °C 59.3 °F /  15.2 °C 29.54 in /  1000.2 hPa South 6.0 mph /  9.7 km/h 11.5 mph /  18.5 km/h 98 % 0.00 in /  0 mm
15:25 59.9 °F /  15.5 °C 59.0 °F /  15 °C 29.54 in /  1000.2 hPa South 7.7 mph /  12.4 km/h 15.0 mph /  24.1 km/h 97 % 0.00 in /  0 mm
15:34 59.9 °F /  15.5 °C 59.3 °F /  15.2 °C 29.53 in /  999.9 hPa South 9.0 mph /  14.5 km/h 21.9 mph /  35.2 km/h 98 % 0.00 in /  0 mm
15:42 60.2 °F /  15.7 °C 59.6 °F /  15.3 °C 29.52 in /  999.5 hPa SSW 6.2 mph /  10 km/h 11.5 mph /  18.5 km/h 98 % 0.00 in /  0 mm
15:47 60.5 °F /  15.8 °C 59.9 °F /  15.5 °C 29.52 in /  999.5 hPa South 9.2 mph /  14.8 km/h 12.7 mph /  20.4 km/h 98 % 0.00 in /  0 mm
15:59 61.0 °F /  16.1 °C 60.4 °F /  15.8 °C 29.51 in /  999.2 hPa SSW 8.7 mph /  14 km/h 13.8 mph /  22.2 km/h 98 % 0.00 in /  0 mm
16:04 61.1 °F /  16.2 °C 60.5 °F /  15.8 °C 29.51 in /  999.2 hPa South 9.8 mph /  15.8 km/h 13.8 mph /  22.2 km/h 98 % 0.00 in /  0 mm
16:11 61.2 °F /  16.2 °C 60.6 °F /  15.9 °C 29.51 in /  999.2 hPa SSW 9.5 mph /  15.3 km/h 18.4 mph /  29.6 km/h 98 % 0.00 in /  0 mm
16:31 60.8 °F /  16 °C 60.2 °F /  15.7 °C 29.51 in /  999.2 hPa South 7.2 mph /  11.6 km/h 16.1 mph /  25.9 km/h 98 % 0.00 in /  0 mm
16:53 60.7 °F /  15.9 °C 60.1 °F /  15.6 °C 29.51 in /  999.2 hPa SSW 8.9 mph /  14.3 km/h 18.0 mph /  29 km/h 98 % 0.00 in /  0 mm
16:58 60.7 °F /  15.9 °C 60.1 °F /  15.6 °C 29.51 in /  999.2 hPa WSW 8.4 mph /  13.5 km/h 19.6 mph /  31.5 km/h 98 % 0.00 in /  0 mm
17:03 60.8 °F /  16 °C 60.2 °F /  15.7 °C 29.51 in /  999.2 hPa SSW 7.4 mph /  11.9 km/h 12.7 mph /  20.4 km/h 98 % 0.00 in /  0 mm
17:09 60.5 °F /  15.8 °C 59.9 °F /  15.5 °C 29.51 in /  999.2 hPa South 9.0 mph /  14.5 km/h 12.7 mph /  20.4 km/h 98 % 0.00 in /  0 mm
17:23 59.8 °F /  15.4 °C 59.2 °F /  15.1 °C 29.50 in /  998.9 hPa SSE 7.5 mph /  12.1 km/h 18.4 mph /  29.6 km/h 98 % 0.00 in /  0 mm
17:28 59.7 °F /  15.4 °C 59.1 °F /  15.1 °C 29.50 in /  998.9 hPa SSE 6.1 mph /  9.8 km/h 13.8 mph /  22.2 km/h 98 % 0.00 in /  0 mm
17:34 59.6 °F /  15.3 °C 59.0 °F /  15 °C 29.50 in /  998.9 hPa South 6.1 mph /  9.8 km/h 11.5 mph /  18.5 km/h 98 % 0.00 in /  0 mm
17:39 59.5 °F /  15.3 °C 58.9 °F /  14.9 °C 29.50 in /  998.9 hPa South 7.4 mph /  11.9 km/h 11.5 mph /  18.5 km/h 98 % 0.00 in /  0 mm
17:45 59.4 °F /  15.2 °C 58.8 °F /  14.9 °C 29.50 in /  998.9 hPa SW 4.3 mph /  6.9 km/h 8.0 mph /  12.9 km/h 98 % 0.00 in /  0 mm
17:53 59.2 °F /  15.1 °C 58.6 °F /  14.8 °C 29.50 in /  998.9 hPa South 9.0 mph /  14.5 km/h 15.0 mph /  24.1 km/h 98 % 0.00 in /  0 mm
18:00 59.1 °F /  15.1 °C 58.5 °F /  14.7 °C 29.50 in /  998.9 hPa SSW 9.6 mph /  15.4 km/h 14.0 mph /  22.5 km/h 98 % 0.00 in /  0 mm
18:05 58.9 °F /  14.9 °C 58.3 °F /  14.6 °C 29.50 in /  998.9 hPa SSW 7.1 mph /  11.4 km/h 17.3 mph /  27.8 km/h 98 % 0.00 in /  0 mm
18:10 58.8 °F /  14.9 °C 58.2 °F /  14.6 °C 29.50 in /  998.9 hPa South 8.2 mph /  13.2 km/h 15.0 mph /  24.1 km/h 98 % 0.00 in /  0 mm
18:19 58.6 °F /  14.8 °C 58.0 °F /  14.4 °C 29.50 in /  998.9 hPa SSW 7.2 mph /  11.6 km/h 10.4 mph /  16.7 km/h 98 % 0.00 in /  0 mm
18:24 58.4 °F /  14.7 °C 57.8 °F /  14.3 °C 29.50 in /  998.9 hPa WSW 9.0 mph /  14.5 km/h 14.0 mph /  22.5 km/h 98 % 0.00 in /  0 mm
18:35 57.9 °F /  14.4 °C 57.1 °F /  13.9 °C 29.50 in /  998.9 hPa SSW 6.5 mph /  10.5 km/h 11.5 mph /  18.5 km/h 97 % 0.00 in /  0 mm
18:46 57.3 °F /  14.1 °C 56.5 °F /  13.6 °C 29.50 in /  998.9 hPa ESE 5.7 mph /  9.2 km/h 11.5 mph /  18.5 km/h 97 % 0.00 in /  0 mm
18:55 56.9 °F /  13.8 °C 56.1 °F /  13.4 °C 29.50 in /  998.9 hPa South 7.0 mph /  11.3 km/h 11.5 mph /  18.5 km/h 97 % 0.00 in /  0 mm
19:05 56.5 °F /  13.6 °C 55.7 °F /  13.2 °C 29.50 in /  998.9 hPa SSW 3.7 mph /  6 km/h 10.4 mph /  16.7 km/h 97 % 0.00 in /  0 mm
19:10 56.4 °F /  13.6 °C 55.6 °F /  13.1 °C 29.49 in /  998.5 hPa South 7.7 mph /  12.4 km/h 12.0 mph /  19.3 km/h 97 % 0.00 in /  0 mm
19:17 56.1 °F /  13.4 °C 55.3 °F /  12.9 °C 29.49 in /  998.5 hPa South 5.1 mph /  8.2 km/h 10.0 mph /  16.1 km/h 97 % 0.00 in /  0 mm
19:26 55.9 °F /  13.3 °C 55.1 °F /  12.8 °C 29.48 in /  998.2 hPa South 3.7 mph /  6 km/h 5.8 mph /  9.3 km/h 97 % 0.00 in /  0 mm
19:36 55.8 °F /  13.2 °C 55.2 °F /  12.9 °C 29.48 in /  998.2 hPa SSW 4.5 mph /  7.2 km/h 7.0 mph /  11.3 km/h 98 % 0.00 in /  0 mm
19:41 55.7 °F /  13.2 °C 54.9 °F /  12.7 °C 29.47 in /  997.9 hPa South 4.8 mph /  7.7 km/h 11.5 mph /  18.5 km/h 97 % 0.00 in /  0 mm
19:47 55.6 °F /  13.1 °C 54.8 °F /  12.7 °C 29.47 in /  997.9 hPa SSW 5.1 mph /  8.2 km/h 6.9 mph /  11.1 km/h 97 % 0.00 in /  0 mm
19:52 55.7 °F /  13.2 °C 54.9 °F /  12.7 °C 29.47 in /  997.9 hPa South 6.1 mph /  9.8 km/h 9.2 mph /  14.8 km/h 97 % 0.01 in /  0.25 mm
20:13 56.0 °F /  13.3 °C 55.4 °F /  13 °C 29.45 in /  997.2 hPa SSW 4.9 mph /  7.9 km/h 8.1 mph /  13 km/h 98 % 0.01 in /  0.25 mm
20:18 55.9 °F /  13.3 °C 55.3 °F /  12.9 °C 29.44 in /  996.8 hPa WSW 4.0 mph /  6.4 km/h 8.1 mph /  13 km/h 98 % 0.02 in /  0.51 mm
20:27 55.8 °F /  13.2 °C 55.2 °F /  12.9 °C 29.44 in /  996.8 hPa South 6.9 mph /  11.1 km/h 11.5 mph /  18.5 km/h 98 % 0.02 in /  0.51 mm
20:35 55.8 °F /  13.2 °C 55.2 °F /  12.9 °C 29.44 in /  996.8 hPa SSW 5.0 mph /  8 km/h 10.0 mph /  16.1 km/h 98 % 0.00 in /  0 mm
20:40 55.9 °F /  13.3 °C 55.4 °F /  13 °C 29.44 in /  996.8 hPa SSW 6.0 mph /  9.7 km/h 10.0 mph /  16.1 km/h 98 % 0.00 in /  0 mm
20:48 56.1 °F /  13.4 °C 55.5 °F /  13.1 °C 29.44 in /  996.8 hPa SSW 5.8 mph /  9.3 km/h 11.0 mph /  17.7 km/h 98 % 0.01 in /  0.25 mm
20:56 56.1 °F /  13.4 °C 55.5 °F /  13.1 °C 29.43 in /  996.5 hPa SSW 4.9 mph /  7.9 km/h 8.1 mph /  13 km/h 98 % 0.01 in /  0.25 mm
21:05 55.9 °F /  13.3 °C 55.3 °F /  12.9 °C 29.43 in /  996.5 hPa SSW 5.1 mph /  8.2 km/h 6.9 mph /  11.1 km/h 98 % 0.01 in /  0.25 mm
21:15 55.8 °F /  13.2 °C 55.2 °F /  12.9 °C 29.43 in /  996.5 hPa South 8.3 mph /  13.4 km/h 11.5 mph /  18.5 km/h 98 % 0.01 in /  0.25 mm
21:21 55.9 °F /  13.3 °C 55.3 °F /  12.9 °C 29.42 in /  996.2 hPa SSW 5.2 mph /  8.4 km/h 8.1 mph /  13 km/h 98 % 0.00 in /  0 mm
21:31 55.9 °F /  13.3 °C 55.3 °F /  12.9 °C 29.41 in /  995.8 hPa South 3.5 mph /  5.6 km/h 6.9 mph /  11.1 km/h 98 % 0.00 in /  0 mm
21:40 55.9 °F /  13.3 °C 55.3 °F /  12.9 °C 29.41 in /  995.8 hPa SSE 3.6 mph /  5.8 km/h 5.8 mph /  9.3 km/h 98 % 0.00 in /  0 mm
21:50 56.2 °F /  13.4 °C 55.6 °F /  13.1 °C 29.39 in /  995.1 hPa South 4.8 mph /  7.7 km/h 8.1 mph /  13 km/h 98 % 0.00 in /  0 mm
21:55 56.4 °F /  13.6 °C 55.8 °F /  13.2 °C 29.39 in /  995.1 hPa SSW 3.3 mph /  5.3 km/h 9.2 mph /  14.8 km/h 98 % 0.00 in /  0 mm
22:03 56.9 °F /  13.8 °C 56.3 °F /  13.5 °C 29.38 in /  994.8 hPa South 4.4 mph /  7.1 km/h 6.9 mph /  11.1 km/h 98 % 0.00 in /  0 mm
22:21 58.1 °F /  14.5 °C 57.5 °F /  14.2 °C 29.37 in /  994.5 hPa SSW 7.6 mph /  12.2 km/h 10.4 mph /  16.7 km/h 98 % 0.01 in /  0.25 mm
22:45 60.5 °F /  15.8 °C 60.2 °F /  15.7 °C 29.35 in /  993.8 hPa South 7.8 mph /  12.6 km/h 12.7 mph /  20.4 km/h 99 % 0.01 in /  0.25 mm
22:50 60.8 °F /  16 °C 60.5 °F /  15.8 °C 29.35 in /  993.8 hPa South 10.9 mph /  17.5 km/h 18.4 mph /  29.6 km/h 99 % 0.01 in /  0.25 mm
22:57 61.1 °F /  16.2 °C 60.8 °F /  16 °C 29.34 in /  993.5 hPa South 7.3 mph /  11.7 km/h 15.0 mph /  24.1 km/h 99 % 0.01 in /  0.25 mm
23:02 61.4 °F /  16.3 °C 61.1 °F /  16.2 °C 29.34 in /  993.5 hPa SSW 10.3 mph /  16.6 km/h 19.6 mph /  31.5 km/h 99 % 0.01 in /  0.25 mm
23:14 61.3 °F /  16.3 °C 61.0 °F /  16.1 °C 29.34 in /  993.5 hPa SSE 7.4 mph /  11.9 km/h 18.4 mph /  29.6 km/h 99 % 0.01 in /  0.25 mm
23:27 61.3 °F /  16.3 °C 61.0 °F /  16.1 °C 29.33 in /  993.1 hPa SSW 7.2 mph /  11.6 km/h 11.5 mph /  18.5 km/h 99 % 0.00 in /  0 mm
23:33 61.1 °F /  16.2 °C 60.8 °F /  16 °C 29.32 in /  992.8 hPa South 13.1 mph /  21.1 km/h 21.9 mph /  35.2 km/h 99 % 0.00 in /  0 mm
23:43 60.4 °F /  15.8 °C 59.8 °F /  15.4 °C 29.32 in /  992.8 hPa SSW 8.5 mph /  13.7 km/h 17.3 mph /  27.8 km/h 98 % 0.00 in /  0 mm
23:49 60.1 °F /  15.6 °C 59.5 °F /  15.3 °C 29.31 in /  992.4 hPa South 8.2 mph /  13.2 km/h 11.5 mph /  18.5 km/h 98 % 0.00 in /  0 mm
23:55 59.9 °F /  15.5 °C 59.3 °F /  15.2 °C 29.31 in /  992.4 hPa SW 10.0 mph /  16.1 km/h 16.1 mph /  25.9 km/h 98 % 0.01 in /  0.25 mm
Crab Meadow Weather
Compliments of Weather Underground - 2.25 mb

Script developed by  Jim McMurry - jmcmurry@mwt.net Adapted for the template by  Wim van der Kuil - Leuven-Template.eu

Weather Terms: Heavy Snow Warning - Snowfall of 6 inches or more in 12 hours or less, or 8 inches or more in 24 hours or less.